Regional Weather Roundup
Issued by NWS

Home | Current Version | Previous Version | Text Only | Print | Product List | Glossary On
Versions: 1 2 3 4 5 6 7 8 9 10 11 12 13 14 15 16 17 18 19 20 21 22 23 24 25 26 27 28 29 30 31 32 33 34 35 36 37 38 39 40 41 42 43 44 45 46 47 48 49 50
000
ASUS45 KBOU 291707
RWRCO

WEATHER ROUNDUP FOR COLORADO
NATIONAL WEATHER SERVICE DENVER/BOULDER CO
1100 AM MDT WED MAR 29 2017

NOTE: "FAIR" INDICATES FEW OR NO CLOUDS BELOW 12000 FEET WITH NO
SIGNIFICANT WEATHER AND/OR OBSTRUCTIONS TO VISIBILITY.

COZ001>005-013-030-031-291800-
...NORTHWEST COLORADO...

CITY           SKY/WX    TMP DP  RH WIND       PRES   REMARKS
CRAIG          PTSUNNY   40  29  64 VRB3      30.20S
HAYDEN         CLOUDY    36  27  69 W8        30.20S
MEEKER         CLOUDY    38  31  76 SW7       30.20S
MOUNT WERNER   NOT AVBL
STEAMBOAT SPGS PTSUNNY   35  31  84 CALM      30.18S
WALDEN         NOT AVBL
$$

COZ006>008-011-291800-
...WEST CENTRAL VALLEYS...

CITY           SKY/WX    TMP DP  RH WIND       PRES   REMARKS
GRAND JUNCTION FAIR      52  31  44 VRB3      30.15F
MONTROSE       FAIR      45  32  60 CALM      30.17S
EAGLE          MOSUNNY   45  23  42 SE5       30.17S
RIFLE          FAIR      49  30  48 VRB5      30.15F
DELTA          FAIR      52  30  42 CALM      30.14S
NUCLA          PTSUNNY   50  27  40 W5        30.17S
$$

COZ017>023-064>068-291800-
...SOUTHWEST COLORADO...

CITY           SKY/WX    TMP DP  RH WIND       PRES   REMARKS
DURANGO        FAIR      49  39  68 VRB3      30.02S
CORTEZ         FAIR      52  28  39 N14G26    30.07R
PAGOSA SPRINGS FAIR      48  20  33 NE8G17    30.04S
TELLURIDE      FAIR      36  24  61 CALM      30.16S
WOLF CREEK PAS   N/A     21  21 100 N9G21     30.17R WCI  11
$$

COZ009-010-012-014-032>034-037-058>063-291800-
...CENTRAL COLORADO...

CITY           SKY/WX    TMP DP  RH WIND       PRES   REMARKS
ASPEN          PTSUNNY   40  23  50 N6        30.14S
BUENA VISTA    FAIR      44  19  36 NW23G35   30.09S
COPPER MTN     CLOUDY    25  19  80 MISG      30.17R
BERTHOUD PASS  CLOUDY    18   5  57 N16G25    30.15S WCI   3
COTTONWOOD PAS FAIR      39  28  65 CALM      30.12S
GUNNISON       FAIR      42  24  49 VRB5      30.12S
KREMMLING      FAIR      45  23  42 NW9       30.16S
LEADVILLE      FAIR      29  15  56 N15       30.13S WCI  18
MONARCH PASS     N/A     23  21  93 MISG      30.24R
SALIDA         FAIR      44  34  70 SE6       30.15S
SUNLIGHT       FAIR      27  21  80 N3        30.23S
WILKERSON PASS CLOUDY   N/A N/A N/A N10G22    30.15S
$$

COZ069>075-291800-
...SAN LUIS VALLEY/SANGRE DE CRISTO MOUNTAINS...

CITY           SKY/WX    TMP DP  RH WIND       PRES   REMARKS
ALAMOSA        FAIR      44  27  51 N17G25    30.04S
LA VETA PASS   NOT AVBL
SAGUACHE       FAIR      43  23  45 NW15      30.07R
$$

COZ035-036-038>040-291800-
...NORTHERN COLORADO FRONT RANGE...

CITY           SKY/WX    TMP DP  RH WIND       PRES   REMARKS
DENVER INTL AP CLOUDY    41  37  86 N15       30.11F
DMNS CITY PARK   N/A     44  35  70 N6G14     30.11F
AURORA         CLOUDY    39  39 100 N14       30.12S
FRONT RANGE AP CLOUDY    41  39  93 N14       30.12S
ERIE MUNI ARPT CLOUDY    45  37  75 N3        30.12F
BOULDER MUN AP FAIR      45  37  76 SE3       30.11F
CENTENNIAL     CLOUDY    39  36  89 N14       30.12S
BROOMFIELD     PTSUNNY   45  37  76 N5        30.13S
FORT COLLINS   FAIR      49  34  56 N13       30.11F
LONGMONT       PTSUNNY   50  38  62 CALM      30.14S
$$

COZ041-046-047-076>085-087-088-291800-
...PIKES PEAK/PALMER DIVIDE AND SOUTHERN FOOTHILLS...

CITY           SKY/WX    TMP DP  RH WIND       PRES   REMARKS
COLO. SPRINGS  PTSUNNY   41  29  62 NW25G36   30.08R
A. F. ACADEMY  PTSUNNY   38  34  84 N28G38    30.07F
SCHRIEVER AFB  CLOUDY    37  32  81 N20G28    30.07S
ELLICOTT       CLOUDY   N/A N/A N/A N31G40    30.04S
FALCON         CLOUDY    34  32  92 N17G30    30.08R WCI  23
FORT CARSON    CLOUDY    42  30  62 N26G38    30.06R
LIMON          CLOUDY    37  37 100 N23G32    30.06S
MONUMENT HILL  CLOUDY    32  32 100 N20G25    30.11S FOG     WCI  20
TRINIDAD       CLOUDY    38  33  82 N17G30    30.07R
$$

COZ042>045-048>051-090-091-291800-
...NORTHEAST COLORADO...

CITY           SKY/WX    TMP DP  RH WIND       PRES   REMARKS
GREELEY ARPT   CLOUDY    47  38  71 N14       30.12F
AKRON          CLOUDY    39  36  89 N15       30.08F
BURLINGTON     CLOUDY    40  39  97 N25G36    29.99F
WRAY           NOT AVBL
STERLING       CLOUDY    43  39  87 N9        30.09S
HOLYOKE        DRIZZLE   43  41  93 N14       30.07F
FORT MORGAN    CLOUDY    43  37  79 N12       30.10F
$$

COZ086-089-092>099-291800-
...SOUTHEAST COLORADO...

CITY           SKY/WX    TMP DP  RH WIND       PRES   REMARKS
PUEBLO         CLOUDY    46  37  71 N10G18    30.06F
LA JUNTA       LGT RAIN  43  38  82 N21G26    30.05R
LAMAR          CLOUDY    43  38  82 N24G30    29.97F
SPRINGFIELD      N/A     39  37  92 N31G43    29.93S
$$



USA.gov is the U.S. government's official web portal to all federal, state and local government web resources and services.